Home   Weather   Fairfield   Past weeks
Flag for USA

Past Weather in Fairfield, Pennsylvania, USA — Yesterday and Last 2 Weeks

Now
61 °F

Overcast.


Feels Like: 61 °F
Forecast: 61 / 51 °F
Wind: 10 mph from Northwest

Location: Erie International Airport
Current Time: Oct 1, 2020 at 4:09:14 pm
Latest Report: Oct 1, 2020 at 2:51 pm
Visibility: 10 mi
Pressure29.93 "Hg
Humidity: 52%
Dew Point: 43 °F
Location of FairfieldLocation

Past Weather in Fairfield — Graph

°F

Fairfield Temperature Yesterday

Maximum temperature yesterday: 64 °F (at 3:51 pm)
Minimum temperature yesterday: 52 °F (at 5:51 am)
Average temperature yesterday: 57 °F

High & Low Weather Summary for the Past Weeks

 TemperatureHumidityPressure
High83 °F (Sep 27, 2:51 pm)90% (Sep 28, 10:08 pm)30.56 "Hg (Sep 28, 10:08 pm)
Low43 °F (Sep 19, 6:51 am)24% (Sep 20, 11:51 am)29.59 "Hg (Sep 30, 4:51 pm)
Average62 °F63%30.03 "Hg
* Reported Sep 16 2:51 pm — Oct 1 2:51 pm, Fairfield. Weather by CustomWeather, © 2020

Note: Actual official high and low records may vary slightly from our data, if they occured in-between our weather recording intervals... More about our weather records

Fairfield Weather History for the Previous 24 Hours

Scroll right to see more
 ConditionsComfort  
Time TempWeatherWind HumidityBarometerVisibility
2:51 pm
Thu, Oct 1
61 °FOvercast.10 mph52%29.93 "Hg10 mi
1:51 pm60 °FPassing clouds.15 mph56%29.93 "Hg10 mi
12:51 pm60 °FPartly sunny.10 mph65%29.92 "Hg10 mi
11:51 am54 °FLight rain. Overcast.5 mph80%29.93 "Hg9 mi
11:04 am52 °FLight rain. More clouds than sun.7 mph83%29.92 "Hg6 mi
10:51 am53 °FRain. Mostly cloudy.8 mph83%29.93 "Hg2 mi
9:51 am51 °FLight rain. Fog.10 mph86%29.91 "Hg5 mi
8:58 am51 °FLight rain. Mostly cloudy.15 mph83%29.89 "Hg5 mi
7:51 am52 °FLight rain. Cloudy.9 mph83%29.87 "Hg9 mi
6:51 am52 °FPartly cloudy.9 mph83%29.85 "Hg10 mi
5:51 am52 °FMostly cloudy.10 mph83%29.84 "Hg10 mi
4:51 am57 °FPassing clouds.16 mph64%29.81 "Hg10 mi
4:12 am55 °FOvercast.7 mph77%29.81 "Hg10 mi
2:51 am58 °FOvercast.13 mph65%29.79 "Hg10 mi
2:12 am58 °FOvercast.15 mph70%29.78 "Hg10 mi
1:51 am57 °FMostly cloudy.13 mph74%29.77 "Hg10 mi
12:51 am55 °FMostly cloudy.9 mph83%29.75 "Hg10 mi
12:21 am55 °FLight rain. Mostly cloudy.12 mph80%29.74 "Hg6 mi
11:51 pm
Wed, Sep 30
56 °FLight rain. Overcast.14 mph77%29.73 "Hg9 mi
11:17 pm56 °FPassing clouds.16 mph75%29.71 "Hg10 mi
11:02 pm56 °FThundershowers. Passing clouds.14 mph75%29.71 "Hg10 mi
9:51 pm56 °FOvercast.21 mph72%29.71 "Hg10 mi
8:51 pm57 °FLight rain. Mostly cloudy.20 mph72%29.71 "Hg10 mi
7:51 pm60 °FPassing clouds.21 mph58%29.67 "Hg10 mi
6:51 pm62 °FSunny.25 mph50%29.62 "Hg10 mi
5:51 pm64 °FSunny.18 mph52%29.60 "Hg10 mi
4:51 pm64 °FMostly cloudy.20 mph52%29.59 "Hg10 mi
Weather by CustomWeather, © 2020

See weather overview